<?xml version="1.0" encoding="UTF-8" standalone="no" ?>
<gpx xmlns="http://www.topografix.com/GPX/1/1" xmlns:xsi="http://www.w3.org/2001/XMLSchema-instance" xsi:schemaLocation="http://www.topografix.com/GPX/1/1 http://www.topografix.com/GPX/1/1/gpx.xsd" version="1.1" creator="VisuGPX - https://www.visugpx.com">
  <metadata>
    <name>Situation 20/07/21 19 h 00</name>
    <desc><![CDATA[Courbes de niveau
Réseau hydro
Aqueduc du Gier (partiel rectifié)
Aqueduc de Fontanières]]></desc>
  </metadata>
  <trk>
    <name><![CDATA[Gier fin]]></name>
    <extensions>
      <line xmlns="http://www.topografix.com/GPX/gpx_style/0/2">
        <color>00fdff</color>
        <width>1</width>
      </line>
    </extensions>
    <trkseg>
      <trkpt lat="45.67672" lon="4.71497">
        <ele>330</ele>
        <time>1899-12-30T00:00:00Z</time>
      </trkpt>
      <trkpt lat="45.67823" lon="4.71648">
        <ele>329</ele>
        <time>1899-12-30T00:00:00Z</time>
      </trkpt>
      <trkpt lat="45.68283" lon="4.72201">
        <ele>330</ele>
        <time>1899-12-30T00:00:00Z</time>
      </trkpt>
      <trkpt lat="45.68297" lon="4.72207">
        <ele>330</ele>
        <time>1899-12-30T00:00:00Z</time>
      </trkpt>
      <trkpt lat="45.68286" lon="4.72196">
        <ele>330</ele>
        <time>1899-12-30T00:00:00Z</time>
      </trkpt>
      <trkpt lat="45.68487" lon="4.72377">
        <ele>321</ele>
        <time>1899-12-30T00:00:00Z</time>
      </trkpt>
      <trkpt lat="45.68584" lon="4.72513">
        <ele>314</ele>
        <time>1899-12-30T00:00:00Z</time>
      </trkpt>
      <trkpt lat="45.69008" lon="4.73327">
        <ele>245</ele>
        <time>1899-12-30T00:00:00Z</time>
      </trkpt>
      <trkpt lat="45.6903" lon="4.7339">
        <ele>233</ele>
        <time>1899-12-30T00:00:00Z</time>
      </trkpt>
      <trkpt lat="45.69206" lon="4.73635">
        <ele>255</ele>
        <time>1899-12-30T00:00:00Z</time>
      </trkpt>
      <trkpt lat="45.69378" lon="4.73755">
        <ele>295</ele>
        <time>1899-12-30T00:00:00Z</time>
      </trkpt>
      <trkpt lat="45.69605" lon="4.7388">
        <ele>314</ele>
        <time>1899-12-30T00:00:00Z</time>
      </trkpt>
      <trkpt lat="45.69738" lon="4.73896">
        <ele>320</ele>
        <time>1899-12-30T00:00:00Z</time>
      </trkpt>
      <trkpt lat="45.69792" lon="4.7375">
        <ele>320</ele>
        <time>1899-12-30T00:00:00Z</time>
      </trkpt>
      <trkpt lat="45.6986" lon="4.73703">
        <ele>321</ele>
        <time>1899-12-30T00:00:00Z</time>
      </trkpt>
      <trkpt lat="45.69932" lon="4.73625">
        <ele>318</ele>
        <time>1899-12-30T00:00:00Z</time>
      </trkpt>
      <trkpt lat="45.70076" lon="4.73698">
        <ele>319</ele>
        <time>1899-12-30T00:00:00Z</time>
      </trkpt>
      <trkpt lat="45.70068" lon="4.73682">
        <ele>318</ele>
        <time>1899-12-30T00:00:00Z</time>
      </trkpt>
      <trkpt lat="45.70201" lon="4.73839">
        <ele>320</ele>
        <time>1899-12-30T00:00:00Z</time>
      </trkpt>
      <trkpt lat="45.70503" lon="4.73766">
        <ele>312</ele>
        <time>1899-12-30T00:00:00Z</time>
      </trkpt>
      <trkpt lat="45.70593" lon="4.7375">
        <ele>313</ele>
        <time>1899-12-30T00:00:00Z</time>
      </trkpt>
      <trkpt lat="45.70809" lon="4.73818">
        <ele>313</ele>
        <time>1899-12-30T00:00:00Z</time>
      </trkpt>
      <trkpt lat="45.71082" lon="4.7388">
        <ele>317</ele>
        <time>1899-12-30T00:00:00Z</time>
      </trkpt>
      <trkpt lat="45.71139" lon="4.74147">
        <ele>319</ele>
        <time>1899-12-30T00:00:00Z</time>
      </trkpt>
      <trkpt lat="45.71225" lon="4.74256">
        <ele>319</ele>
        <time>1899-12-30T00:00:00Z</time>
      </trkpt>
      <trkpt lat="45.7124" lon="4.74429">
        <ele>319</ele>
        <time>1899-12-30T00:00:00Z</time>
      </trkpt>
      <trkpt lat="45.71204" lon="4.74601">
        <ele>319</ele>
        <time>1899-12-30T00:00:00Z</time>
      </trkpt>
      <trkpt lat="45.71222" lon="4.74789">
        <ele>316</ele>
        <time>1899-12-30T00:00:00Z</time>
      </trkpt>
      <trkpt lat="45.71297" lon="4.74997">
        <ele>320</ele>
        <time>1899-12-30T00:00:00Z</time>
      </trkpt>
      <trkpt lat="45.71473" lon="4.75175">
        <ele>320</ele>
        <time>1899-12-30T00:00:00Z</time>
      </trkpt>
      <trkpt lat="45.71613" lon="4.75232">
        <ele>320</ele>
        <time>1899-12-30T00:00:00Z</time>
      </trkpt>
      <trkpt lat="45.71693" lon="4.753">
        <ele>320</ele>
        <time>1899-12-30T00:00:00Z</time>
      </trkpt>
      <trkpt lat="45.71761" lon="4.75373">
        <ele>315</ele>
        <time>1899-12-30T00:00:00Z</time>
      </trkpt>
      <trkpt lat="45.71746" lon="4.75478">
        <ele>320</ele>
        <time>1899-12-30T00:00:00Z</time>
      </trkpt>
      <trkpt lat="45.71746" lon="4.75577">
        <ele>321</ele>
        <time>1899-12-30T00:00:00Z</time>
      </trkpt>
      <trkpt lat="45.71772" lon="4.75713">
        <ele>319</ele>
        <time>1899-12-30T00:00:00Z</time>
      </trkpt>
      <trkpt lat="45.71811" lon="4.75833">
        <ele>318</ele>
        <time>1899-12-30T00:00:00Z</time>
      </trkpt>
      <trkpt lat="45.71815" lon="4.75844">
        <ele>317.7</ele>
      </trkpt>
      <trkpt lat="45.71859" lon="4.75869">
        <ele>315.4</ele>
      </trkpt>
      <trkpt lat="45.71859" lon="4.75869">
        <ele>315.4</ele>
      </trkpt>
      <trkpt lat="45.71859" lon="4.75869">
        <ele>315.4</ele>
      </trkpt>
      <trkpt lat="45.71859" lon="4.75869">
        <ele>315.4</ele>
      </trkpt>
      <trkpt lat="45.71859" lon="4.75869">
        <ele>315.4</ele>
      </trkpt>
      <trkpt lat="45.71859" lon="4.75869">
        <ele>315.4</ele>
      </trkpt>
      <trkpt lat="45.71859" lon="4.75869">
        <ele>315.4</ele>
      </trkpt>
      <trkpt lat="45.71859" lon="4.75869">
        <ele>315.4</ele>
      </trkpt>
      <trkpt lat="45.71859" lon="4.75869">
        <ele>315.4</ele>
      </trkpt>
      <trkpt lat="45.71859" lon="4.75869">
        <ele>315.4</ele>
      </trkpt>
      <trkpt lat="45.71859" lon="4.75869">
        <ele>315.4</ele>
      </trkpt>
      <trkpt lat="45.71859" lon="4.75869">
        <ele>315.4</ele>
      </trkpt>
      <trkpt lat="45.71859" lon="4.75869">
        <ele>315.4</ele>
      </trkpt>
      <trkpt lat="45.71859" lon="4.75869">
        <ele>315.4</ele>
      </trkpt>
      <trkpt lat="45.71859" lon="4.75869">
        <ele>315.4</ele>
      </trkpt>
      <trkpt lat="45.71859" lon="4.75869">
        <ele>315.4</ele>
      </trkpt>
      <trkpt lat="45.71859" lon="4.75869">
        <ele>315.4</ele>
      </trkpt>
      <trkpt lat="45.71859" lon="4.75869">
        <ele>315.4</ele>
      </trkpt>
      <trkpt lat="45.71859" lon="4.75869">
        <ele>315.4</ele>
      </trkpt>
      <trkpt lat="45.71859" lon="4.75869">
        <ele>315.4</ele>
      </trkpt>
      <trkpt lat="45.71859" lon="4.75869">
        <ele>315.4</ele>
      </trkpt>
      <trkpt lat="45.71859" lon="4.75869">
        <ele>315.4</ele>
      </trkpt>
      <trkpt lat="45.71859" lon="4.75869">
        <ele>315.4</ele>
      </trkpt>
      <trkpt lat="45.71859" lon="4.75869">
        <ele>315.4</ele>
      </trkpt>
      <trkpt lat="45.71859" lon="4.75869">
        <ele>315.4</ele>
      </trkpt>
      <trkpt lat="45.71859" lon="4.75869">
        <ele>315.4</ele>
      </trkpt>
      <trkpt lat="45.71859" lon="4.75869">
        <ele>315.4</ele>
      </trkpt>
      <trkpt lat="45.71859" lon="4.75869">
        <ele>315.4</ele>
      </trkpt>
      <trkpt lat="45.71859" lon="4.75869">
        <ele>315.4</ele>
      </trkpt>
      <trkpt lat="45.71859" lon="4.75869">
        <ele>315.4</ele>
      </trkpt>
      <trkpt lat="45.72285" lon="4.76093">
        <ele>306.7</ele>
        <time>1899-12-30T00:00:00Z</time>
      </trkpt>
      <trkpt lat="45.72322" lon="4.76202">
        <ele>302.8</ele>
        <time>1899-12-30T00:00:00Z</time>
      </trkpt>
      <trkpt lat="45.7237" lon="4.76627">
        <ele>284.2</ele>
        <time>1899-12-30T00:00:00Z</time>
      </trkpt>
      <trkpt lat="45.7239" lon="4.76888">
        <ele>263.2</ele>
      </trkpt>
      <trkpt lat="45.72429" lon="4.77128">
        <ele>246.4</ele>
      </trkpt>
      <trkpt lat="45.72494" lon="4.77315">
        <ele>216.6</ele>
      </trkpt>
      <trkpt lat="45.72546" lon="4.77414">
        <ele>209.2</ele>
      </trkpt>
      <trkpt lat="45.72587" lon="4.77572">
        <ele>207.3</ele>
        <time>1899-12-30T00:00:00Z</time>
      </trkpt>
      <trkpt lat="45.72668" lon="4.78129">
        <ele>195.8</ele>
        <time>1899-12-30T00:00:00Z</time>
      </trkpt>
      <trkpt lat="45.7269" lon="4.78262">
        <ele>220.3</ele>
      </trkpt>
      <trkpt lat="45.72734" lon="4.78403">
        <ele>237.5</ele>
      </trkpt>
      <trkpt lat="45.72786" lon="4.7851">
        <ele>248.9</ele>
      </trkpt>
      <trkpt lat="45.72813" lon="4.78567">
        <ele>251.5</ele>
      </trkpt>
      <trkpt lat="45.72846" lon="4.78714">
        <ele>263.1</ele>
      </trkpt>
      <trkpt lat="45.72903" lon="4.79023">
        <ele>284</ele>
      </trkpt>
      <trkpt lat="45.7294" lon="4.79344">
        <ele>291.8</ele>
        <time>1899-12-30T00:00:00Z</time>
      </trkpt>
      <trkpt lat="45.72947" lon="4.79502">
        <ele>304</ele>
        <time>1899-12-30T00:00:00Z</time>
      </trkpt>
      <trkpt lat="45.72947" lon="4.79502">
        <ele>304</ele>
        <time>1899-12-30T00:00:00Z</time>
      </trkpt>
      <trkpt lat="45.72947" lon="4.79502">
        <ele>304</ele>
        <time>1899-12-30T00:00:00Z</time>
      </trkpt>
      <trkpt lat="45.73342" lon="4.79915">
        <ele>305</ele>
        <time>1899-12-30T00:00:00Z</time>
      </trkpt>
      <trkpt lat="45.73478" lon="4.80009">
        <ele>301</ele>
        <time>1899-12-30T00:00:00Z</time>
      </trkpt>
      <trkpt lat="45.7364" lon="4.80103">
        <ele>310</ele>
        <time>1899-12-30T00:00:00Z</time>
      </trkpt>
      <trkpt lat="45.74075" lon="4.80359">
        <ele>306</ele>
        <time>1899-12-30T00:00:00Z</time>
      </trkpt>
      <trkpt lat="45.74578" lon="4.80729">
        <ele>305</ele>
        <time>1899-12-30T00:00:00Z</time>
      </trkpt>
      <trkpt lat="45.74625" lon="4.80693">
        <ele>307</ele>
        <time>1899-12-30T00:00:00Z</time>
      </trkpt>
      <trkpt lat="45.74653" lon="4.8062">
        <ele>304</ele>
        <time>1899-12-30T00:00:00Z</time>
      </trkpt>
      <trkpt lat="45.74747" lon="4.80656">
        <ele>306</ele>
        <time>1899-12-30T00:00:00Z</time>
      </trkpt>
      <trkpt lat="45.74754" lon="4.80656">
        <ele>305</ele>
        <time>1899-12-30T00:00:00Z</time>
      </trkpt>
      <trkpt lat="45.74754" lon="4.80656">
        <ele>305</ele>
        <time>1899-12-30T00:00:00Z</time>
      </trkpt>
      <trkpt lat="45.74754" lon="4.80656">
        <ele>305</ele>
        <time>1899-12-30T00:00:00Z</time>
      </trkpt>
      <trkpt lat="45.74991" lon="4.80734">
        <ele>306</ele>
        <time>1899-12-30T00:00:00Z</time>
      </trkpt>
      <trkpt lat="45.75149" lon="4.80813">
        <ele>309</ele>
        <time>1899-12-30T00:00:00Z</time>
      </trkpt>
      <trkpt lat="45.75282" lon="4.8098">
        <ele>305</ele>
        <time>1899-12-30T00:00:00Z</time>
      </trkpt>
      <trkpt lat="45.75936" lon="4.81423">
        <ele>293</ele>
        <time>1899-12-30T00:00:00Z</time>
      </trkpt>
      <trkpt lat="45.75969" lon="4.81538">
        <ele>296</ele>
        <time>1899-12-30T00:00:00Z</time>
      </trkpt>
    </trkseg>
  </trk>
</gpx>